TimeEDT,TemperatureF,Dew PointF,Humidity,Sea Level PressureIn,VisibilityMPH,Wind Direction,Wind SpeedMPH,Gust SpeedMPH,PrecipitationIn,Events,Conditions,WindDirDegrees,DateUTC
12:52 AM,48.0,41.0,77,29.70,10.0,WSW,3.5,-,N/A,,Overcast,250,2013-11-02 04:52:00
1:52 AM,45.0,41.0,86,29.71,10.0,SW,3.5,-,N/A,,Overcast,220,2013-11-02 05:52:00
2:52 AM,46.9,41.0,80,29.70,10.0,WSW,5.8,-,N/A,,Overcast,240,2013-11-02 06:52:00
3:52 AM,46.0,39.9,79,29.70,10.0,SW,10.4,-,N/A,,Overcast,230,2013-11-02 07:52:00
4:00 AM,46.4,39.2,76,29.69,10.0,WSW,6.9,-,N/A,,Overcast,240,2013-11-02 08:00:00
4:47 AM,44.6,42.8,93,29.69,10.0,WSW,6.9,-,0.00,,Overcast,240,2013-11-02 08:47:00
4:52 AM,45.0,42.1,90,29.70,8.0,WSW,11.5,-,0.00,,Overcast,240,2013-11-02 08:52:00
5:05 AM,44.6,42.8,93,29.69,10.0,WSW,10.4,-,N/A,,Overcast,240,2013-11-02 09:05:00
5:52 AM,46.0,42.1,86,29.71,10.0,WSW,11.5,-,N/A,,Overcast,240,2013-11-02 09:52:00
6:52 AM,45.0,43.0,93,29.73,7.0,WSW,9.2,18.4,N/A,,Overcast,240,2013-11-02 10:52:00
7:08 AM,44.6,42.8,93,29.72,3.0,WSW,11.5,-,0.01,Rain,Light Rain,240,2013-11-02 11:08:00
7:52 AM,44.1,43.0,96,29.74,7.0,WSW,5.8,-,0.02,Rain,Light Rain,250,2013-11-02 11:52:00
8:52 AM,44.1,43.0,96,29.75,8.0,West,5.8,-,0.01,,Overcast,260,2013-11-02 12:52:00
9:52 AM,45.0,43.0,93,29.77,10.0,West,8.1,-,0.00,,Overcast,260,2013-11-02 13:52:00
10:37 AM,44.6,42.8,93,29.77,10.0,West,8.1,-,N/A,,Overcast,270,2013-11-02 14:37:00
10:52 AM,45.0,43.0,93,29.78,10.0,WSW,10.4,-,N/A,,Overcast,250,2013-11-02 14:52:00
11:52 AM,45.0,43.0,93,29.81,7.0,WSW,10.4,-,0.01,Rain,Light Rain,250,2013-11-02 15:52:00
12:00 PM,46.4,42.8,87,29.79,10.0,WSW,9.2,-,0.00,,Overcast,250,2013-11-02 16:00:00
12:25 PM,46.4,42.8,87,29.80,10.0,WSW,9.2,19.6,0.00,,Overcast,250,2013-11-02 16:25:00
12:52 PM,46.0,42.1,86,29.82,9.0,WSW,9.2,-,0.00,,Overcast,250,2013-11-02 16:52:00
12:59 PM,46.4,42.8,87,29.80,7.0,WSW,9.2,-,N/A,,Overcast,240,2013-11-02 16:59:00
1:30 PM,46.4,42.8,87,29.81,5.0,WSW,6.9,-,0.00,Rain,Light Rain,240,2013-11-02 17:30:00
1:52 PM,46.0,43.0,89,29.82,7.0,WSW,10.4,-,0.01,Rain,Light Rain,250,2013-11-02 17:52:00
2:52 PM,46.0,43.0,89,29.82,9.0,West,13.8,18.4,0.00,,Overcast,260,2013-11-02 18:52:00
3:16 PM,46.4,42.8,87,29.82,7.0,West,8.1,-,0.01,Rain,Light Rain,260,2013-11-02 19:16:00
3:23 PM,46.4,44.6,93,29.82,9.0,West,11.5,-,0.01,,Overcast,260,2013-11-02 19:23:00
3:52 PM,43.0,39.9,89,29.86,10.0,WNW,9.2,17.3,0.03,Rain,Light Rain,300,2013-11-02 19:52:00
4:10 PM,42.8,41.0,93,29.85,10.0,West,4.6,-,0.01,Rain,Light Rain,280,2013-11-02 20:10:00
4:43 PM,42.8,42.8,100,29.86,10.0,WSW,8.1,-,0.01,,Overcast,250,2013-11-02 20:43:00
4:52 PM,43.0,42.1,97,29.88,9.0,West,4.6,-,0.02,Rain,Light Rain,260,2013-11-02 20:52:00
4:59 PM,42.8,42.8,100,29.87,9.0,West,5.8,-,0.00,Rain,Light Rain,260,2013-11-02 20:59:00
5:42 PM,42.8,42.8,100,29.88,10.0,Variable,3.5,-,0.02,Rain,Light Rain,0,2013-11-02 21:42:00
5:52 PM,44.1,43.0,96,29.91,7.0,West,4.6,-,0.02,Rain,Light Rain,280,2013-11-02 21:52:00
6:19 PM,42.8,41.0,93,29.90,5.0,WNW,6.9,16.1,0.05,Rain,Light Rain,300,2013-11-02 22:19:00
6:48 PM,42.8,42.8,100,29.91,10.0,West,4.6,-,0.06,,Overcast,280,2013-11-02 22:48:00
6:52 PM,43.0,42.1,97,29.93,10.0,West,4.6,-,0.06,Rain,Light Rain,260,2013-11-02 22:52:00
7:52 PM,43.0,42.1,97,29.96,10.0,WNW,5.8,-,0.00,,Overcast,300,2013-11-02 23:52:00
8:29 PM,42.8,41.0,93,29.96,10.0,NW,10.4,-,N/A,,Mostly Cloudy,320,2013-11-03 00:29:00
8:39 PM,42.8,41.0,93,29.97,10.0,NNW,11.5,-,N/A,,Overcast,340,2013-11-03 00:39:00
8:52 PM,43.0,41.0,93,29.99,9.0,NNW,10.4,-,0.00,Rain,Light Rain,340,2013-11-03 00:52:00
9:04 PM,42.8,41.0,93,29.97,10.0,NNW,8.1,-,0.00,Rain,Light Rain,340,2013-11-03 01:04:00
9:13 PM,42.8,41.0,93,29.97,10.0,NNW,8.1,-,0.00,,Overcast,340,2013-11-03 01:13:00
9:52 PM,42.1,41.0,96,30.02,10.0,NW,6.9,-,0.00,,Mostly Cloudy,320,2013-11-03 01:52:00
10:03 PM,42.8,41.0,93,30.00,10.0,NNW,9.2,-,N/A,,Overcast,330,2013-11-03 02:03:00
10:30 PM,42.8,39.2,87,30.01,9.0,North,9.2,-,0.00,Rain,Light Rain,350,2013-11-03 02:30:00
10:52 PM,42.1,41.0,96,30.04,10.0,NNW,8.1,-,0.01,Rain,Light Rain,330,2013-11-03 02:52:00
11:04 PM,41.0,39.2,93,30.03,10.0,NNW,5.8,-,0.01,Rain,Light Rain,340,2013-11-03 03:04:00
11:18 PM,41.0,39.2,93,30.03,10.0,NW,5.8,-,0.01,,Overcast,320,2013-11-03 03:18:00
11:25 PM,42.8,41.0,93,30.03,10.0,NNW,5.8,-,0.01,,Overcast,330,2013-11-03 03:25:00
11:52 PM,42.1,39.9,92,30.06,10.0,NNW,9.2,-,0.01,,Overcast,340,2013-11-03 03:52:00